User: anonymous   Login
Location: Unspecified
(0.0000°N, 0.0000°E)
Time: 22:38:20
(UTC+02:00)
Language:

Cosmos 1898 Rocket - Orbit

View from above orbital plane
View from above orbital plane
View from above satellite
View from above satellite

Ground track
Ground track

The orbit data is extracted from the following two-line orbital elements,

1 18586U 87098B   16270.55411620  .00000125  00000-0  51117-4 0  9997
2 18586  74.0064  60.7700 0020979 182.4899 242.9098 14.36740430509504
Epoch (UTC): 26 September 2016 13:17:55
Eccentricity: 0.0020979
inclination: 74.0064°
perigee height: 754 km
apogee height: 784 km
right ascension of ascending node: 60.7700°
argument of perigee: 182.4899°
revolutions per day: 14.36740430
mean anomaly at epoch: 242.9098°
orbit number at epoch: 50950

The dashed part of the orbit path shows where the satellite is in the earth's shadow,  

DLR